フルーエリング彗星

C/2019 D1 ( Flewelling )

English version
Home page
Updated on August 6, 2019

---------------------------------------------------------------------

・ プロフィール

発見日 2019年2月26日
発見光度 16.7等
発見者 Heather Flewelling (Asteroid Terrestrial-Impact Last Alert System (ATLAS) search program)

・ 写真集

・ 軌道要素

Epoch 2019 Apr. 27.0 TT = JDT 2458600.5                                         
T 2019 May 11.84118 TT                                  MPCLINUX                
q   1.5775452            (2000.0)            P               Q                  
z  +0.0072462      Peri.   70.47661     +0.40559539     +0.80114672             
 +/-0.0000096      Node   231.71757     -0.89448991     +0.44695941             
e   0.9885687      Incl.   34.09834     +0.18809620     +0.39798393             
From 505 observations 2019 Feb. 26-July 28, mean residual 0".6.                 

・ 星図

・ 光度変化

        m1 = 9.5 + 5 logΔ + 20.0 log r

---------------------------------------------------------------------

軌道要素はM.P.E.C. 2019-O94に掲載されたものです。
星図はステラナビゲータ Ver.10 (アストロアーツ) で作成したものです。
光度グラフはComet for Windowsで作成したものです。

---------------------------------------------------------------------

Copyright(C) Seiichi Yoshida (comet@aerith.net). All rights reserved.